User: anonymous   Login
Location: Unspecified
(0.0000°N, 0.0000°E)
Time: 12:05:59
(UTC+00:00)
Language:

WGS F3 (USA 211) - Orbit

View from above orbital plane
View from above orbital plane
View from above satellite
View from above satellite

Ground track
Ground track

The orbit data is extracted from the following two-line orbital elements,

1 36108U 09068A   19110.84568946 -.00000115  00000-0  00000+0 0  9990
2 36108   0.0143 245.7911 0000765 208.3858  46.8844  1.00270255 34305
Epoch (UTC): 20 April 2019 20:17:47
Eccentricity: 0.0000765
inclination: 0.0143°
perigee height: 35783 km
apogee height: 35790 km
right ascension of ascending node: 245.7911°
argument of perigee: 208.3858°
revolutions per day: 1.00270255
mean anomaly at epoch: 46.8844°
orbit number at epoch: 3430

The dashed part of the orbit path shows where the satellite is in the earth's shadow,  

DLR